Data supplied by UK-AIR on 7/6/2017
All Data GMT hour ending 
Status: R =Ratified P=Provisional,P*=As supplied
,,Newcastle Cradlewell Roadside,,,,,,,,,,,,,,,,,,,,,,,
Date,time,"Nitric oxide",status,unit,"Nitrogen dioxide",status,unit,"Nitrogen oxides as nitrogen dioxide",status,unit
 
01-01-2016,01:00,12.24433,R,ugm-3,22.09065,R,ugm-3,40.86503,R,ugm-3
01-01-2016,02:00,,,,,,,,,
01-01-2016,03:00,57.67921,R,ugm-3,73.97215,R,ugm-3,162.41237,R,ugm-3
01-01-2016,04:00,70.26727,R,ugm-3,78.08498,R,ugm-3,185.82663,R,ugm-3
01-01-2016,05:00,43.37112,R,ugm-3,65.26167,R,ugm-3,131.76312,R,ugm-3
01-01-2016,06:00,25.69251,R,ugm-3,50.89545,R,ugm-3,90.29008,R,ugm-3
01-01-2016,07:00,15.88998,R,ugm-3,31.74272,R,ugm-3,56.10701,R,ugm-3
01-01-2016,08:00,13.82663,R,ugm-3,30.70949,R,ugm-3,51.91003,R,ugm-3
01-01-2016,09:00,16.64678,R,ugm-3,36.87778,R,ugm-3,62.40248,R,ugm-3
01-01-2016,10:00,23.62916,R,ugm-3,36.38770,R,ugm-3,72.61858,R,ugm-3
01-01-2016,11:00,43.47464,R,ugm-3,51.35206,R,ugm-3,118.01225,R,ugm-3
01-01-2016,12:00,35.32291,R,ugm-3,47.67098,R,ugm-3,101.83202,R,ugm-3
01-01-2016,13:00,70.30188,R,ugm-3,74.93940,R,ugm-3,182.73412,R,ugm-3
01-01-2016,14:00,47.39553,R,ugm-3,64.44743,R,ugm-3,137.11956,R,ugm-3
01-01-2016,15:00,34.56643,R,ugm-3,53.13833,R,ugm-3,106.13945,R,ugm-3
01-01-2016,16:00,20.77409,R,ugm-3,40.37909,R,ugm-3,72.23226,R,ugm-3
01-01-2016,17:00,14.61773,R,ugm-3,25.96219,R,ugm-3,48.37573,R,ugm-3
01-01-2016,18:00,10.04357,R,ugm-3,19.00451,R,ugm-3,34.40444,R,ugm-3
01-01-2016,19:00,9.66502,R,ugm-3,15.71932,R,ugm-3,30.53880,R,ugm-3
01-01-2016,20:00,7.01637,R,ugm-3,14.36861,R,ugm-3,25.12690,R,ugm-3
01-01-2016,21:00,8.35753,R,ugm-3,14.02388,R,ugm-3,26.83859,R,ugm-3
01-01-2016,22:00,6.29419,R,ugm-3,13.48743,R,ugm-3,23.13838,R,ugm-3
01-01-2016,23:00,6.25958,R,ugm-3,10.83479,R,ugm-3,20.43267,R,ugm-3
01-01-2016,24:00,5.09023,R,ugm-3,8.76260,R,ugm-3,16.56751,R,ugm-3
02-01-2016,01:00,3.94396,R,ugm-3,7.27961,R,ugm-3,13.32694,R,ugm-3
02-01-2016,02:00,,,,,,,,,
02-01-2016,03:00,2.16718,R,ugm-3,6.61725,R,ugm-3,9.94022,R,ugm-3
02-01-2016,04:00,3.16440,R,ugm-3,8.67797,R,ugm-3,13.52998,R,ugm-3
02-01-2016,05:00,3.26761,R,ugm-3,9.34734,R,ugm-3,14.35762,R,ugm-3
02-01-2016,06:00,3.30192,R,ugm-3,9.79248,R,ugm-3,14.85534,R,ugm-3
02-01-2016,07:00,6.77533,R,ugm-3,10.98205,R,ugm-3,21.37075,R,ugm-3
02-01-2016,08:00,9.49258,R,ugm-3,13.44296,R,ugm-3,27.99804,R,ugm-3
02-01-2016,09:00,10.45549,R,ugm-3,14.78267,R,ugm-3,30.81420,R,ugm-3
02-01-2016,10:00,18.81365,R,ugm-3,18.97678,R,ugm-3,47.82398,R,ugm-3
02-01-2016,11:00,21.08374,R,ugm-3,23.88952,R,ugm-3,56.21746,R,ugm-3
02-01-2016,12:00,20.60197,R,ugm-3,25.34541,R,ugm-3,56.93465,R,ugm-3
02-01-2016,13:00,26.65511,R,ugm-3,27.38557,R,ugm-3,68.25617,R,ugm-3
02-01-2016,14:00,37.07724,R,ugm-3,34.32316,R,ugm-3,91.17413,R,ugm-3
02-01-2016,15:00,36.04479,R,ugm-3,36.40348,R,ugm-3,91.67138,R,ugm-3
02-01-2016,16:00,36.32044,R,ugm-3,31.83882,R,ugm-3,87.52939,R,ugm-3
02-01-2016,17:00,25.65821,R,ugm-3,27.53378,R,ugm-3,66.87582,R,ugm-3
02-01-2016,18:00,24.72928,R,ugm-3,26.58327,R,ugm-3,64.50098,R,ugm-3
02-01-2016,19:00,20.08621,R,ugm-3,23.92824,R,ugm-3,54.72667,R,ugm-3
02-01-2016,20:00,18.67614,R,ugm-3,25.15081,R,ugm-3,53.78715,R,ugm-3
02-01-2016,21:00,12.14122,R,ugm-3,20.15058,R,ugm-3,38.76685,R,ugm-3
02-01-2016,22:00,14.17058,R,ugm-3,19.74513,R,ugm-3,41.47304,R,ugm-3
02-01-2016,23:00,11.79728,R,ugm-3,18.35857,R,ugm-3,36.44747,R,ugm-3
02-01-2016,24:00,7.77349,R,ugm-3,15.85797,R,ugm-3,27.77715,R,ugm-3
03-01-2016,01:00,8.94273,R,ugm-3,14.70968,R,ugm-3,28.42166,R,ugm-3
03-01-2016,02:00,,,,,,,,,
03-01-2016,03:00,4.57447,R,ugm-3,11.54098,R,ugm-3,18.55508,R,ugm-3
03-01-2016,04:00,4.47157,R,ugm-3,9.48983,R,ugm-3,16.34614,R,ugm-3
03-01-2016,05:00,3.06119,R,ugm-3,8.39396,R,ugm-3,13.08772,R,ugm-3
03-01-2016,06:00,2.68294,R,ugm-3,8.03489,R,ugm-3,12.14868,R,ugm-3
03-01-2016,07:00,5.36526,R,ugm-3,9.94165,R,ugm-3,18.16827,R,ugm-3
03-01-2016,08:00,7.94530,R,ugm-3,13.82738,R,ugm-3,26.01000,R,ugm-3
03-01-2016,09:00,7.77286,R,ugm-3,13.48456,R,ugm-3,25.40278,R,ugm-3
03-01-2016,10:00,14.65172,R,ugm-3,16.90889,R,ugm-3,39.37455,R,ugm-3
03-01-2016,11:00,25.89894,R,ugm-3,25.34158,R,ugm-3,65.05273,R,ugm-3
03-01-2016,12:00,36.45796,R,ugm-3,38.08839,R,ugm-3,93.98981,R,ugm-3
03-01-2016,13:00,49.56240,R,ugm-3,48.53447,R,ugm-3,124.52909,R,ugm-3
03-01-2016,14:00,35.83898,R,ugm-3,45.16751,R,ugm-3,100.11985,R,ugm-3
03-01-2016,15:00,27.51544,R,ugm-3,38.10465,R,ugm-3,80.29440,R,ugm-3
03-01-2016,16:00,21.25586,R,ugm-3,30.36285,R,ugm-3,62.95472,R,ugm-3
03-01-2016,17:00,16.23392,R,ugm-3,23.70496,R,ugm-3,48.59663,R,ugm-3
03-01-2016,18:00,13.20735,R,ugm-3,19.06763,R,ugm-3,39.31861,R,ugm-3
03-01-2016,19:00,11.79759,R,ugm-3,16.64592,R,ugm-3,34.73530,R,ugm-3
03-01-2016,20:00,11.48763,R,ugm-3,15.63086,R,ugm-3,33.24499,R,ugm-3
03-01-2016,21:00,8.90853,R,ugm-3,11.57780,R,ugm-3,25.23735,R,ugm-3
03-01-2016,22:00,6.98207,R,ugm-3,9.61653,R,ugm-3,20.32223,R,ugm-3
03-01-2016,23:00,9.18325,R,ugm-3,17.45204,R,ugm-3,31.53282,R,ugm-3
03-01-2016,24:00,10.86866,R,ugm-3,19.89335,R,ugm-3,36.55839,R,ugm-3
04-01-2016,01:00,8.07835,R,ugm-3,20.96865,R,ugm-3,33.35528,R,ugm-3
04-01-2016,02:00,,,,,,,,,
04-01-2016,03:00,2.78834,R,ugm-3,9.19865,R,ugm-3,13.47404,R,ugm-3
04-01-2016,04:00,7.09152,R,ugm-3,13.75566,R,ugm-3,24.62918,R,ugm-3
04-01-2016,05:00,3.27042,R,ugm-3,10.11617,R,ugm-3,15.13074,R,ugm-3
04-01-2016,06:00,9.94909,R,ugm-3,16.83000,R,ugm-3,32.08506,R,ugm-3
04-01-2016,07:00,38.41871,R,ugm-3,40.38387,R,ugm-3,99.29174,R,ugm-3
04-01-2016,08:00,57.66237,R,ugm-3,55.77424,R,ugm-3,144.18863,R,ugm-3
04-01-2016,09:00,79.35104,R,ugm-3,64.04628,R,ugm-3,185.71618,R,ugm-3
04-01-2016,10:00,68.64453,R,ugm-3,55.94349,R,ugm-3,161.19698,R,ugm-3
04-01-2016,11:00,70.67545,R,ugm-3,59.95353,R,ugm-3,168.32104,R,ugm-3
04-01-2016,12:00,50.22690,R,ugm-3,49.55861,R,ugm-3,126.57212,R,ugm-3
04-01-2016,13:00,37.45486,R,ugm-3,41.58636,R,ugm-3,99.01634,R,ugm-3
04-01-2016,14:00,46.37118,R,ugm-3,44.20553,R,ugm-3,115.30702,R,ugm-3
04-01-2016,15:00,52.36103,R,ugm-3,48.10894,R,ugm-3,128.39473,R,ugm-3
04-01-2016,16:00,65.68375,R,ugm-3,56.45270,R,ugm-3,157.16638,R,ugm-3
04-01-2016,17:00,75.52932,R,ugm-3,66.70322,R,ugm-3,182.51322,R,ugm-3
04-01-2016,18:00,42.89402,R,ugm-3,44.40060,R,ugm-3,110.17052,R,ugm-3
04-01-2016,19:00,33.25520,R,ugm-3,35.10250,R,ugm-3,86.09310,R,ugm-3
04-01-2016,20:00,19.89787,R,ugm-3,26.09463,R,ugm-3,56.60426,R,ugm-3
04-01-2016,21:00,19.38117,R,ugm-3,27.43912,R,ugm-3,57.15650,R,ugm-3
04-01-2016,22:00,14.63083,R,ugm-3,24.45083,R,ugm-3,46.88446,R,ugm-3
04-01-2016,23:00,9.94878,R,ugm-3,21.08197,R,ugm-3,36.33654,R,ugm-3
04-01-2016,24:00,9.67375,R,ugm-3,20.89645,R,ugm-3,35.72933,R,ugm-3
05-01-2016,01:00,5.46193,R,ugm-3,19.99710,R,ugm-3,28.37194,R,ugm-3
05-01-2016,02:00,,,,,,,,,
05-01-2016,03:00,3.58038,R,ugm-3,19.10540,R,ugm-3,24.59523,R,ugm-3
05-01-2016,04:00,4.68174,R,ugm-3,21.28613,R,ugm-3,28.46469,R,ugm-3
05-01-2016,05:00,6.02446,R,ugm-3,23.87039,R,ugm-3,33.10777,R,ugm-3
05-01-2016,06:00,8.64067,R,ugm-3,24.28014,R,ugm-3,37.52899,R,ugm-3
05-01-2016,07:00,23.51254,R,ugm-3,30.60478,R,ugm-3,66.65684,R,ugm-3
05-01-2016,08:00,44.27104,R,ugm-3,43.15891,R,ugm-3,111.04023,R,ugm-3
05-01-2016,09:00,59.41825,R,ugm-3,48.89545,R,ugm-3,140.00217,R,ugm-3
05-01-2016,10:00,62.13799,R,ugm-3,53.67862,R,ugm-3,148.95554,R,ugm-3
05-01-2016,11:00,79.14430,R,ugm-3,58.44457,R,ugm-3,179.79747,R,ugm-3
05-01-2016,12:00,86.16691,R,ugm-3,65.63939,R,ugm-3,197.76015,R,ugm-3
05-01-2016,13:00,50.81188,R,ugm-3,45.78621,R,ugm-3,123.69668,R,ugm-3
05-01-2016,14:00,71.46717,R,ugm-3,59.43763,R,ugm-3,169.01910,R,ugm-3
05-01-2016,15:00,61.13953,R,ugm-3,55.32050,R,ugm-3,149.06647,R,ugm-3
05-01-2016,16:00,57.04308,R,ugm-3,54.58227,R,ugm-3,142.04711,R,ugm-3
05-01-2016,17:00,84.72098,R,ugm-3,70.84187,R,ugm-3,200.74556,R,ugm-3
05-01-2016,18:00,85.75375,R,ugm-3,74.01088,R,ugm-3,205.49813,R,ugm-3
05-01-2016,19:00,38.14337,R,ugm-3,44.15341,R,ugm-3,102.63909,R,ugm-3
05-01-2016,20:00,24.47639,R,ugm-3,29.12738,R,ugm-3,66.65732,R,ugm-3
05-01-2016,21:00,15.83541,R,ugm-3,25.13168,R,ugm-3,49.41231,R,ugm-3
05-01-2016,22:00,15.00970,R,ugm-3,23.30286,R,ugm-3,46.31740,R,ugm-3
05-01-2016,23:00,14.21766,R,ugm-3,22.96960,R,ugm-3,44.76971,R,ugm-3
05-01-2016,24:00,10.53438,R,ugm-3,22.53738,R,ugm-3,38.68988,R,ugm-3
06-01-2016,01:00,7.20607,R,ugm-3,19.16644,R,ugm-3,30.21559,R,ugm-3
06-01-2016,02:00,,,,,,,,,
06-01-2016,03:00,3.13259,R,ugm-3,12.99400,R,ugm-3,17.79725,R,ugm-3
06-01-2016,04:00,3.30472,R,ugm-3,10.68514,R,ugm-3,15.75231,R,ugm-3
06-01-2016,05:00,3.82142,R,ugm-3,12.65645,R,ugm-3,18.51587,R,ugm-3
06-01-2016,06:00,11.46331,R,ugm-3,18.12811,R,ugm-3,35.70494,R,ugm-3
06-01-2016,07:00,38.45332,R,ugm-3,32.01573,R,ugm-3,90.97667,R,ugm-3
06-01-2016,08:00,65.09877,R,ugm-3,49.36019,R,ugm-3,149.17691,R,ugm-3
06-01-2016,09:00,75.94280,R,ugm-3,51.30425,R,ugm-3,167.74824,R,ugm-3
06-01-2016,10:00,78.86896,R,ugm-3,55.38457,R,ugm-3,176.31529,R,ugm-3
06-01-2016,11:00,64.10031,R,ugm-3,47.57487,R,ugm-3,145.86064,R,ugm-3
06-01-2016,12:00,58.24798,R,ugm-3,44.77545,R,ugm-3,134.08777,R,ugm-3
06-01-2016,13:00,55.87280,R,ugm-3,43.33247,R,ugm-3,129.00291,R,ugm-3
06-01-2016,14:00,70.81328,R,ugm-3,50.82278,R,ugm-3,159.40162,R,ugm-3
06-01-2016,15:00,59.96925,R,ugm-3,40.92081,R,ugm-3,132.87237,R,ugm-3
06-01-2016,16:00,61.00201,R,ugm-3,46.30163,R,ugm-3,139.83674,R,ugm-3
06-01-2016,17:00,55.70068,R,ugm-3,44.14911,R,ugm-3,129.55562,R,ugm-3
06-01-2016,18:00,56.66390,R,ugm-3,43.83259,R,ugm-3,130.71603,R,ugm-3
06-01-2016,19:00,34.73543,R,ugm-3,36.44508,R,ugm-3,89.70533,R,ugm-3
06-01-2016,20:00,21.51593,R,ugm-3,29.46541,R,ugm-3,62.45603,R,ugm-3
06-01-2016,21:00,18.17659,R,ugm-3,27.17997,R,ugm-3,55.05036,R,ugm-3
06-01-2016,22:00,17.28134,R,ugm-3,26.00952,R,ugm-3,52.50721,R,ugm-3
06-01-2016,23:00,16.17966,R,ugm-3,25.76424,R,ugm-3,50.57272,R,ugm-3
06-01-2016,24:00,9.87986,R,ugm-3,19.22971,R,ugm-3,34.37862,R,ugm-3
07-01-2016,01:00,5.96667,R,ugm-3,13.16119,R,ugm-3,22.30995,R,ugm-3
07-01-2016,02:00,,,,,,,,,
07-01-2016,03:00,2.71974,R,ugm-3,10.79463,R,ugm-3,14.96483,R,ugm-3
07-01-2016,04:00,2.99508,R,ugm-3,9.10302,R,ugm-3,13.69541,R,ugm-3
07-01-2016,05:00,3.61468,R,ugm-3,7.87711,R,ugm-3,13.41953,R,ugm-3
07-01-2016,06:00,6.02446,R,ugm-3,12.74203,R,ugm-3,21.97941,R,ugm-3
07-01-2016,07:00,23.27181,R,ugm-3,23.90386,R,ugm-3,59.58681,R,ugm-3
07-01-2016,08:00,56.83666,R,ugm-3,49.63989,R,ugm-3,136.78822,R,ugm-3
07-01-2016,09:00,59.10861,R,ugm-3,53.94350,R,ugm-3,144.57544,R,ugm-3
07-01-2016,10:00,71.63930,R,ugm-3,59.41516,R,ugm-3,169.26055,R,ugm-3
07-01-2016,11:00,76.56208,R,ugm-3,64.23657,R,ugm-3,181.63013,R,ugm-3
07-01-2016,12:00,81.86373,R,ugm-3,71.34916,R,ugm-3,196.87179,R,ugm-3
07-01-2016,13:00,108.26814,R,ugm-3,86.58270,R,ugm-3,252.59153,R,ugm-3
07-01-2016,14:00,116.42672,R,ugm-3,91.85546,R,ugm-3,270.37395,R,ugm-3
07-01-2016,15:00,21.99770,R,ugm-3,28.28635,R,ugm-3,62.01568,R,ugm-3
07-01-2016,16:00,10.74081,R,ugm-3,18.26677,R,ugm-3,34.73578,R,ugm-3
07-01-2016,17:00,8.88171,R,ugm-3,17.74848,R,ugm-3,31.36691,R,ugm-3
07-01-2016,18:00,9.32918,R,ugm-3,18.11090,R,ugm-3,32.41544,R,ugm-3
07-01-2016,19:00,11.11937,R,ugm-3,22.15870,R,ugm-3,39.20816,R,ugm-3
07-01-2016,20:00,6.67867,R,ugm-3,15.38367,R,ugm-3,25.62415,R,ugm-3
07-01-2016,21:00,6.29980,R,ugm-3,12.81614,R,ugm-3,22.47570,R,ugm-3
07-01-2016,22:00,6.29980,R,ugm-3,9.28232,R,ugm-3,18.94188,R,ugm-3
07-01-2016,23:00,2.71974,R,ugm-3,5.99091,R,ugm-3,10.16111,R,ugm-3
07-01-2016,24:00,4.02784,R,ugm-3,6.63590,R,ugm-3,12.81184,R,ugm-3
08-01-2016,01:00,3.16731,R,ugm-3,5.67311,R,ugm-3,10.52959,R,ugm-3
08-01-2016,02:00,,,,,,,,,
08-01-2016,03:00,2.23766,R,ugm-3,7.61366,R,ugm-3,11.04469,R,ugm-3
08-01-2016,04:00,6.26550,R,ugm-3,13.75231,R,ugm-3,23.35928,R,ugm-3
08-01-2016,05:00,14.28657,R,ugm-3,29.06522,R,ugm-3,50.97099,R,ugm-3
08-01-2016,06:00,28.33242,R,ugm-3,55.46250,R,ugm-3,98.90494,R,ugm-3
08-01-2016,07:00,191.43997,R,ugm-3,116.55205,R,ugm-3,410.08925,R,ugm-3
08-01-2016,08:00,296.40338,R,ugm-3,151.10137,R,ugm-3,605.58022,R,ugm-3
08-01-2016,09:00,371.14098,R,ugm-3,168.48886,R,ugm-3,737.56375,R,ugm-3
08-01-2016,10:00,306.90284,R,ugm-3,153.50251,R,ugm-3,624.08031,R,ugm-3
08-01-2016,11:00,178.15186,R,ugm-3,109.81240,R,ugm-3,382.97478,R,ugm-3
08-01-2016,12:00,143.93281,R,ugm-3,102.91545,R,ugm-3,323.60934,R,ugm-3
08-01-2016,13:00,210.61502,R,ugm-3,125.25584,R,ugm-3,448.19438,R,ugm-3
08-01-2016,14:00,213.30015,R,ugm-3,130.02896,R,ugm-3,457.08463,R,ugm-3
08-01-2016,15:00,205.21016,R,ugm-3,121.28214,R,ugm-3,435.93334,R,ugm-3
08-01-2016,16:00,176.25815,R,ugm-3,113.37874,R,ugm-3,383.63746,R,ugm-3
08-01-2016,17:00,182.42043,R,ugm-3,121.04930,R,ugm-3,400.75673,R,ugm-3
08-01-2016,18:00,240.18664,R,ugm-3,152.97323,R,ugm-3,521.25427,R,ugm-3
08-01-2016,19:00,131.05787,R,ugm-3,118.62520,R,ugm-3,319.57779,R,ugm-3
08-01-2016,20:00,179.59779,R,ugm-3,128.74520,R,ugm-3,404.12464,R,ugm-3
08-01-2016,21:00,191.19924,R,ugm-3,124.37561,R,ugm-3,417.54369,R,ugm-3
08-01-2016,22:00,215.60672,R,ugm-3,126.21639,R,ugm-3,456.80875,R,ugm-3
08-01-2016,23:00,230.16864,R,ugm-3,120.17911,R,ugm-3,473.09943,R,ugm-3
08-01-2016,24:00,227.72486,R,ugm-3,116.08397,R,ugm-3,465.25722,R,ugm-3
09-01-2016,01:00,122.73848,R,ugm-3,87.16665,R,ugm-3,275.36303,R,ugm-3
09-01-2016,02:00,,,,,,,,,
09-01-2016,03:00,124.13816,R,ugm-3,85.59059,R,ugm-3,275.93311,R,ugm-3
09-01-2016,04:00,30.08831,R,ugm-3,47.60834,R,ugm-3,93.74310,R,ugm-3
09-01-2016,05:00,19.31288,R,ugm-3,43.38458,R,ugm-3,72.99726,R,ugm-3
09-01-2016,06:00,22.99616,R,ugm-3,47.50315,R,ugm-3,82.76344,R,ugm-3
09-01-2016,07:00,53.08415,R,ugm-3,61.45580,R,ugm-3,142.85036,R,ugm-3
09-01-2016,08:00,152.57379,R,ugm-3,91.70294,R,ugm-3,325.64616,R,ugm-3
09-01-2016,09:00,136.70346,R,ugm-3,89.93962,R,ugm-3,299.54866,R,ugm-3
09-01-2016,10:00,204.48735,R,ugm-3,105.73687,R,ugm-3,419.27977,R,ugm-3
09-01-2016,11:00,200.87268,R,ugm-3,110.12032,R,ugm-3,418.12079,R,ugm-3
09-01-2016,12:00,187.58457,R,ugm-3,102.24512,R,ugm-3,389.87078,R,ugm-3
09-01-2016,13:00,136.35951,R,ugm-3,97.14257,R,ugm-3,306.22424,R,ugm-3
09-01-2016,14:00,77.62977,R,ugm-3,75.84975,R,ugm-3,194.88040,R,ugm-3
09-01-2016,15:00,89.12738,R,ugm-3,79.02163,R,ugm-3,215.68171,R,ugm-3
09-01-2016,16:00,93.43088,R,ugm-3,82.52055,R,ugm-3,225.77923,R,ugm-3
09-01-2016,17:00,139.56071,R,ugm-3,107.46290,R,ugm-3,321.45300,R,ugm-3
09-01-2016,18:00,163.89959,R,ugm-3,109.15259,R,ugm-3,360.46178,R,ugm-3
09-01-2016,19:00,128.54456,R,ugm-3,102.50474,R,ugm-3,299.60364,R,ugm-3
09-01-2016,20:00,57.69729,R,ugm-3,61.49883,R,ugm-3,149.96678,R,ugm-3
09-01-2016,21:00,27.91894,R,ugm-3,36.03724,R,ugm-3,78.84568,R,ugm-3
09-01-2016,22:00,15.62898,R,ugm-3,23.15559,R,ugm-3,47.11970,R,ugm-3
09-01-2016,23:00,11.11937,R,ugm-3,19.75278,R,ugm-3,36.80224,R,ugm-3
09-01-2016,24:00,13.18490,R,ugm-3,23.70305,R,ugm-3,43.91961,R,ugm-3
10-01-2016,01:00,12.76071,R,ugm-3,24.50040,R,ugm-3,44.06655,R,ugm-3
10-01-2016,02:00,,,,,,,,,
10-01-2016,03:00,13.76988,R,ugm-3,25.50988,R,ugm-3,46.62340,R,ugm-3
10-01-2016,04:00,8.77850,R,ugm-3,15.45204,R,ugm-3,28.91222,R,ugm-3
10-01-2016,05:00,5.12921,R,ugm-3,9.73654,R,ugm-3,17.60122,R,ugm-3
10-01-2016,06:00,2.34118,R,ugm-3,6.17642,R,ugm-3,9.76618,R,ugm-3
10-01-2016,07:00,2.16906,R,ugm-3,5.83360,R,ugm-3,9.15944,R,ugm-3
10-01-2016,08:00,9.39809,R,ugm-3,17.26079,R,ugm-3,31.67100,R,ugm-3
10-01-2016,09:00,14.45839,R,ugm-3,24.61961,R,ugm-3,46.78883,R,ugm-3
10-01-2016,10:00,19.45040,R,ugm-3,29.21487,R,ugm-3,59.03840,R,ugm-3
10-01-2016,11:00,22.61760,R,ugm-3,33.29663,R,ugm-3,67.97647,R,ugm-3
10-01-2016,12:00,20.41425,R,ugm-3,30.77069,R,ugm-3,62.07210,R,ugm-3
10-01-2016,13:00,27.95355,R,ugm-3,43.15748,R,ugm-3,86.01899,R,ugm-3
10-01-2016,14:00,29.43379,R,ugm-3,43.37072,R,ugm-3,88.50189,R,ugm-3
10-01-2016,15:00,29.19275,R,ugm-3,44.01571,R,ugm-3,88.77729,R,ugm-3
10-01-2016,16:00,51.87957,R,ugm-3,66.83327,R,ugm-3,146.38084,R,ugm-3
10-01-2016,17:00,39.03831,R,ugm-3,55.07283,R,ugm-3,114.93073,R,ugm-3
10-01-2016,18:00,20.79280,R,ugm-3,32.45226,R,ugm-3,64.33411,R,ugm-3
10-01-2016,19:00,28.05677,R,ugm-3,42.17158,R,ugm-3,85.19136,R,ugm-3
10-01-2016,20:00,37.11092,R,ugm-3,48.86916,R,ugm-3,105.77177,R,ugm-3
10-01-2016,21:00,39.31365,R,ugm-3,51.94685,R,ugm-3,112.22693,R,ugm-3
10-01-2016,22:00,23.47824,R,ugm-3,35.83882,R,ugm-3,71.83828,R,ugm-3
10-01-2016,23:00,23.75327,R,ugm-3,34.47951,R,ugm-3,70.90068,R,ugm-3
10-01-2016,24:00,15.38825,R,ugm-3,28.87684,R,ugm-3,52.47183,R,ugm-3
11-01-2016,01:00,13.31119,R,ugm-3,24.35378,R,ugm-3,44.76398,R,ugm-3
11-01-2016,02:00,,,,,,,,,
11-01-2016,03:00,4.68205,R,ugm-3,13.27323,R,ugm-3,20.45228,R,ugm-3
11-01-2016,04:00,7.19474,R,ugm-3,16.53165,R,ugm-3,27.56343,R,ugm-3
11-01-2016,05:00,6.64406,R,ugm-3,19.69206,R,ugm-3,29.87947,R,ugm-3
11-01-2016,06:00,26.19798,R,ugm-3,38.93898,R,ugm-3,79.10865,R,ugm-3
11-01-2016,07:00,75.08185,R,ugm-3,66.35706,R,ugm-3,181.48095,R,ugm-3
11-01-2016,08:00,160.00957,R,ugm-3,102.34648,R,ugm-3,347.69107,R,ugm-3
11-01-2016,09:00,282.56459,R,ugm-3,140.18003,R,ugm-3,573.43970,R,ugm-3
11-01-2016,10:00,335.26925,R,ugm-3,143.27159,R,ugm-3,657.34394,R,ugm-3
11-01-2016,11:00,207.79207,R,ugm-3,109.62259,R,ugm-3,428.23266,R,ugm-3
11-01-2016,12:00,166.86005,R,ugm-3,101.04885,R,ugm-3,356.89736,R,ugm-3
11-01-2016,13:00,125.99726,R,ugm-3,84.15526,R,ugm-3,277.34836,R,ugm-3
11-01-2016,14:00,80.21137,R,ugm-3,69.02117,R,ugm-3,192.01022,R,ugm-3
11-01-2016,15:00,112.39919,R,ugm-3,83.61546,R,ugm-3,255.95848,R,ugm-3
11-01-2016,16:00,113.01879,R,ugm-3,93.19517,R,ugm-3,266.48823,R,ugm-3
11-01-2016,17:00,212.02634,R,ugm-3,111.28885,R,ugm-3,436.39138,R,ugm-3
11-01-2016,18:00,452.00655,R,ugm-3,173.98299,R,ugm-3,867.05004,R,ugm-3
11-01-2016,19:00,248.06988,R,ugm-3,121.35004,R,ugm-3,501.71856,R,ugm-3
11-01-2016,20:00,218.22293,R,ugm-3,106.36369,R,ugm-3,440.96752,R,ugm-3
11-01-2016,21:00,368.62798,R,ugm-3,141.13103,R,ugm-3,706.35271,R,ugm-3
11-01-2016,22:00,191.54350,R,ugm-3,102.01132,R,ugm-3,395.70725,R,ugm-3
11-01-2016,23:00,155.36213,R,ugm-3,92.21740,R,ugm-3,330.43601,R,ugm-3
11-01-2016,24:00,213.88545,R,ugm-3,103.75313,R,ugm-3,431.70623,R,ugm-3
12-01-2016,01:00,102.54220,R,ugm-3,74.45426,R,ugm-3,231.68344,R,ugm-3
12-01-2016,02:00,,,,,,,,,
12-01-2016,03:00,20.03569,R,ugm-3,49.54570,R,ugm-3,80.26667,R,ugm-3
12-01-2016,04:00,9.22597,R,ugm-3,30.39680,R,ugm-3,44.54308,R,ugm-3
12-01-2016,05:00,11.18859,R,ugm-3,26.72623,R,ugm-3,43.88183,R,ugm-3
12-01-2016,06:00,7.40117,R,ugm-3,27.24117,R,ugm-3,38.58947,R,ugm-3
12-01-2016,07:00,7.71112,R,ugm-3,25.71834,R,ugm-3,37.54190,R,ugm-3
12-01-2016,08:00,8.84741,R,ugm-3,29.32341,R,ugm-3,42.88925,R,ugm-3
12-01-2016,09:00,24.02892,R,ugm-3,53.12447,R,ugm-3,89.96830,R,ugm-3
12-01-2016,10:00,16.00816,R,ugm-3,28.87349,R,ugm-3,53.41899,R,ugm-3
12-01-2016,11:00,32.63529,R,ugm-3,41.58205,R,ugm-3,91.62214,R,ugm-3
12-01-2016,12:00,30.70759,R,ugm-3,41.23015,R,ugm-3,88.31447,R,ugm-3
12-01-2016,13:00,20.62099,R,ugm-3,38.17350,R,ugm-3,69.79191,R,ugm-3
12-01-2016,14:00,13.90771,R,ugm-3,43.33964,R,ugm-3,64.66449,R,ugm-3
12-01-2016,15:00,16.45532,R,ugm-3,40.59138,R,ugm-3,65.82251,R,ugm-3
12-01-2016,16:00,10.84403,R,ugm-3,30.12092,R,ugm-3,46.74819,R,ugm-3
12-01-2016,17:00,31.01755,R,ugm-3,41.74701,R,ugm-3,89.30658,R,ugm-3
12-01-2016,18:00,23.58145,R,ugm-3,47.08527,R,ugm-3,83.24300,R,ugm-3
12-01-2016,19:00,21.65344,R,ugm-3,40.06353,R,ugm-3,73.26501,R,ugm-3
12-01-2016,20:00,23.23720,R,ugm-3,45.35255,R,ugm-3,80.98242,R,ugm-3
12-01-2016,21:00,18.58976,R,ugm-3,33.40468,R,ugm-3,61.90858,R,ugm-3
12-01-2016,22:00,8.77850,R,ugm-3,28.82281,R,ugm-3,42.28298,R,ugm-3
12-01-2016,23:00,7.60791,R,ugm-3,23.39561,R,ugm-3,35.06091,R,ugm-3
12-01-2016,24:00,9.32949,R,ugm-3,21.74895,R,ugm-3,36.05397,R,ugm-3
13-01-2016,01:00,3.35066,R,ugm-3,12.26805,R,ugm-3,17.40566,R,ugm-3
13-01-2016,02:00,,,,,,,,,
13-01-2016,03:00,3.09829,R,ugm-3,9.01935,R,ugm-3,13.77000,R,ugm-3
13-01-2016,04:00,2.06553,R,ugm-3,6.80228,R,ugm-3,9.96938,R,ugm-3
13-01-2016,05:00,2.27196,R,ugm-3,4.44800,R,ugm-3,7.93162,R,ugm-3
13-01-2016,06:00,5.81803,R,ugm-3,11.07290,R,ugm-3,19.99375,R,ugm-3
13-01-2016,07:00,13.25350,R,ugm-3,18.28924,R,ugm-3,38.61098,R,ugm-3
13-01-2016,08:00,11.01615,R,ugm-3,27.83357,R,ugm-3,44.72477,R,ugm-3
13-01-2016,09:00,16.76527,R,ugm-3,36.47903,R,ugm-3,62.18542,R,ugm-3
13-01-2016,10:00,20.96524,R,ugm-3,34.88591,R,ugm-3,67.03217,R,ugm-3
13-01-2016,11:00,27.43717,R,ugm-3,36.80463,R,ugm-3,78.87437,R,ugm-3
13-01-2016,12:00,68.47209,R,ugm-3,60.41635,R,ugm-3,165.40543,R,ugm-3
13-01-2016,13:00,103.96526,R,ugm-3,81.45385,R,ugm-3,240.86503,R,ugm-3
13-01-2016,14:00,215.70993,R,ugm-3,125.09137,R,ugm-3,455.84198,R,ugm-3
13-01-2016,15:00,225.17725,R,ugm-3,128.69643,R,ugm-3,473.96340,R,ugm-3
13-01-2016,16:00,158.04757,R,ugm-3,115.84921,R,ugm-3,358.18543,R,ugm-3
13-01-2016,17:00,182.11079,R,ugm-3,127.53315,R,ugm-3,406.76580,R,ugm-3
13-01-2016,18:00,142.62470,R,ugm-3,102.59319,R,ugm-3,321.28135,R,ugm-3
13-01-2016,19:00,81.79513,R,ugm-3,87.63218,R,ugm-3,213.04963,R,ugm-3
13-01-2016,20:00,64.58239,R,ugm-3,75.41370,R,ugm-3,174.43865,R,ugm-3
13-01-2016,21:00,43.34149,R,ugm-3,60.61382,R,ugm-3,127.06985,R,ugm-3
13-01-2016,22:00,32.01601,R,ugm-3,48.23564,R,ugm-3,97.32617,R,ugm-3
13-01-2016,23:00,43.10076,R,ugm-3,53.71208,R,ugm-3,119.79900,R,ugm-3
13-01-2016,24:00,59.79681,R,ugm-3,62.64681,R,ugm-3,154.33397,R,ugm-3
14-01-2016,01:00,38.69457,R,ugm-3,57.43811,R,ugm-3,116.76896,R,ugm-3
14-01-2016,02:00,,,,,,,,,
14-01-2016,03:00,2.85725,R,ugm-3,40.34371,R,ugm-3,44.72477,R,ugm-3
14-01-2016,04:00,2.44408,R,ugm-3,26.65690,R,ugm-3,30.40445,R,ugm-3
14-01-2016,05:00,1.61806,R,ugm-3,18.67030,R,ugm-3,21.15129,R,ugm-3
14-01-2016,06:00,5.02600,R,ugm-3,15.48217,R,ugm-3,23.18858,R,ugm-3
14-01-2016,07:00,1.78988,R,ugm-3,6.78412,R,ugm-3,9.52855,R,ugm-3
14-01-2016,08:00,2.44408,R,ugm-3,9.52712,R,ugm-3,13.27466,R,ugm-3
14-01-2016,09:00,4.78527,R,ugm-3,14.41929,R,ugm-3,21.75660,R,ugm-3
14-01-2016,10:00,2.96047,R,ugm-3,10.88308,R,ugm-3,15.42240,R,ugm-3
14-01-2016,11:00,3.68359,R,ugm-3,12.80371,R,ugm-3,18.45180,R,ugm-3
14-01-2016,12:00,8.53746,R,ugm-3,19.51658,R,ugm-3,32.60717,R,ugm-3
14-01-2016,13:00,9.50131,R,ugm-3,18.31458,R,ugm-3,32.88305,R,ugm-3
14-01-2016,14:00,11.84249,R,ugm-3,22.21512,R,ugm-3,40.37335,R,ugm-3
14-01-2016,15:00,8.70927,R,ugm-3,19.69397,R,ugm-3,33.04800,R,ugm-3
14-01-2016,16:00,23.89110,R,ugm-3,34.91651,R,ugm-3,71.54902,R,ugm-3
14-01-2016,17:00,33.04815,R,ugm-3,45.71688,R,ugm-3,96.39000,R,ugm-3
14-01-2016,18:00,30.98293,R,ugm-3,40.73195,R,ugm-3,88.23845,R,ugm-3
14-01-2016,19:00,25.64698,R,ugm-3,42.68939,R,ugm-3,82.01422,R,ugm-3
14-01-2016,20:00,9.26027,R,ugm-3,28.04729,R,ugm-3,42.24617,R,ugm-3
14-01-2016,21:00,8.98493,R,ugm-3,27.42334,R,ugm-3,41.20003,R,ugm-3
14-01-2016,22:00,7.95216,R,ugm-3,24.87589,R,ugm-3,37.06903,R,ugm-3
14-01-2016,23:00,4.78527,R,ugm-3,20.53260,R,ugm-3,27.86991,R,ugm-3
14-01-2016,24:00,2.37548,R,ugm-3,13.10158,R,ugm-3,16.74394,R,ugm-3
15-01-2016,01:00,2.34118,R,ugm-3,10.20510,R,ugm-3,13.79486,R,ugm-3
15-01-2016,02:00,,,,,,,,,
15-01-2016,03:00,1.27412,R,ugm-3,7.78722,R,ugm-3,9.74084,R,ugm-3
15-01-2016,04:00,2.20336,R,ugm-3,7.57302,R,ugm-3,10.95145,R,ugm-3
15-01-2016,05:00,1.96200,R,ugm-3,8.21801,R,ugm-3,11.22638,R,ugm-3
15-01-2016,06:00,2.23766,R,ugm-3,10.10708,R,ugm-3,13.53811,R,ugm-3
15-01-2016,07:00,5.02600,R,ugm-3,18.98443,R,ugm-3,26.69085,R,ugm-3
15-01-2016,08:00,8.70990,R,ugm-3,31.93588,R,ugm-3,45.29087,R,ugm-3
15-01-2016,09:00,26.19798,R,ugm-3,44.08456,R,ugm-3,84.25423,R,ugm-3
15-01-2016,10:00,14.80296,R,ugm-3,28.31743,R,ugm-3,51.01498,R,ugm-3
15-01-2016,11:00,62.51686,R,ugm-3,56.41636,R,ugm-3,152.27421,R,ugm-3
15-01-2016,12:00,39.89926,R,ugm-3,41.89762,R,ugm-3,103.07562,R,ugm-3
15-01-2016,13:00,27.47178,R,ugm-3,33.60119,R,ugm-3,75.72400,R,ugm-3
15-01-2016,14:00,16.69667,R,ugm-3,28.33034,R,ugm-3,53.93154,R,ugm-3
15-01-2016,15:00,9.63882,R,ugm-3,20.49626,R,ugm-3,35.27558,R,ugm-3
15-01-2016,16:00,16.28350,R,ugm-3,31.16467,R,ugm-3,56.13235,R,ugm-3
15-01-2016,17:00,41.44809,R,ugm-3,45.35637,R,ugm-3,108.90923,R,ugm-3
15-01-2016,18:00,22.06661,R,ugm-3,40.95380,R,ugm-3,74.78879,R,ugm-3
15-01-2016,19:00,13.90802,R,ugm-3,35.41328,R,ugm-3,56.73862,R,ugm-3
15-01-2016,20:00,13.25381,R,ugm-3,33.22395,R,ugm-3,53.54618,R,ugm-3